Date String (YYYY-MM-DD hh:mm:ss) UTC,Instrument flags,Ambient pressure (hPa),Sample flow (lpm),Bypass flow (lpm),Sample temperature (°C),Ambient temperature (°C),ASC tube jacket temperature (°C),LED temperature (°C),Box temperature (°C),Sample RH (%),Span deviation,Mass concentration (μg/m³),Mass concentration (μg/m³),Mass concentration (μg/m³)
DateTimeUTC,F1_M11,P_M11,Q1_M11,Q2_M11,T1_M11,T2_M11,T3_M11,T4_M11,T5_M11,U1_M11,ZSPAN_M11,X0_M11,X2_M11,X1_M11
2022-12-01 12:00:00,,0818.5,5.00,0.00,22.0,20.6,00.0,30.9,23.7,09.6,0000.0,0003.04,0001.71,0001.31
2022-12-01 12:01:00,,0818.5,5.00,0.00,21.9,20.4,00.0,30.9,23.6,09.6,0000.0,0002.82,0001.75,0001.32
2022-12-01 12:02:00,,0818.7,5.00,0.00,21.9,20.2,00.0,30.9,23.5,09.7,0000.0,0003.01,0001.80,0001.35
2022-12-01 12:03:00,,0818.7,4.99,0.00,21.8,20.1,00.0,30.9,23.5,10.1,0000.0,0003.02,0001.81,0001.36
2022-12-01 12:04:00,,0818.8,5.00,0.00,21.8,20.1,00.0,30.8,23.5,10.8,0000.0,0003.10,0001.84,0001.36
2022-12-01 12:05:00,,0818.7,5.00,0.00,21.8,20.1,00.0,30.8,23.5,10.7,0000.0,0003.11,0001.84,0001.35
2022-12-01 12:06:00,,0818.5,5.00,0.00,21.7,20.1,00.0,30.8,23.4,10.5,0000.0,0003.19,0001.84,0001.35
2022-12-01 12:07:00,,0818.4,5.00,0.00,21.7,20.0,00.0,30.8,23.4,10.3,0000.0,0003.10,0001.81,0001.35
2022-12-01 12:08:00,,0818.4,5.01,0.00,21.7,20.6,00.0,30.7,23.5,10.0,0000.0,0003.09,0001.80,0001.35
2022-12-01 12:09:00,,0818.4,4.99,0.00,21.8,21.7,00.0,30.7,23.7,10.5,0000.0,0003.00,0001.77,0001.32
2022-12-01 12:10:00,,0818.3,4.98,0.00,22.0,22.1,00.0,30.7,23.9,11.0,0000.0,0003.21,0001.79,0001.29
2022-12-01 12:11:00,,0818.4,5.00,0.00,22.0,21.7,00.0,30.8,23.9,10.2,0000.0,0003.21,0001.77,0001.27
2022-12-01 12:12:00,,0818.5,5.01,0.00,22.0,21.3,00.0,30.8,23.8,10.0,0000.0,0003.13,0001.75,0001.26
2022-12-01 12:13:00,,0818.7,5.01,0.00,22.0,21.1,00.0,30.8,23.8,09.9,0000.0,0002.95,0001.71,0001.24
2022-12-01 12:14:00,,0818.7,4.99,0.00,21.9,20.8,00.0,30.8,23.7,09.8,0000.0,0002.88,0001.68,0001.22
2022-12-01 12:15:00,,0818.7,4.99,0.00,21.9,20.6,00.0,30.8,23.6,09.6,0000.0,0002.88,0001.68,0001.21
2022-12-01 12:16:00,,0818.7,5.00,0.00,21.8,20.4,00.0,30.8,23.5,09.7,0000.0,0002.89,0001.66,0001.21
2022-12-01 12:17:00,,0818.5,5.00,0.00,21.8,20.1,00.0,30.8,23.4,09.7,0000.0,0002.85,0001.66,0001.20
2022-12-01 12:18:00,,0818.4,5.00,0.00,21.7,20.0,00.0,30.8,23.3,09.6,0000.0,0002.78,0001.62,0001.19
2022-12-01 12:19:00,,0818.3,5.00,0.00,21.7,19.9,00.0,30.8,23.3,09.4,0000.0,0003.05,0001.60,0001.18
2022-12-01 12:20:00,,0818.2,4.99,0.00,21.7,19.9,00.0,30.8,23.3,09.4,0000.0,0004.14,0001.57,0001.17
2022-12-01 12:21:00,,0818.3,4.99,0.00,21.6,19.9,00.0,30.7,23.3,09.4,0000.0,0003.91,0001.52,0001.16
2022-12-01 12:22:00,,0818.4,5.00,0.00,21.6,19.8,00.0,30.7,23.2,09.5,0000.0,0003.77,0001.49,0001.16
2022-12-01 12:23:00,,0818.5,5.02,0.00,21.6,20.6,00.0,30.6,23.4,09.5,0000.0,0003.61,0001.42,0001.15
2022-12-01 12:24:00,,0818.7,4.99,0.00,21.7,21.8,00.0,30.6,23.7,09.5,0000.0,0003.57,0001.41,0001.14
2022-12-01 12:25:00,,0818.8,4.99,0.00,21.9,22.0,00.0,30.7,23.8,09.4,0000.0,0003.54,0001.40,0001.15
2022-12-01 12:26:00,,0818.7,5.00,0.00,21.9,21.6,00.0,30.7,23.8,10.4,0000.0,0003.55,0001.40,0001.14
2022-12-01 12:27:00,,0818.5,5.00,0.00,21.9,21.2,00.0,30.7,23.7,10.9,0000.0,0003.44,0001.37,0001.12
2022-12-01 12:28:00,,0818.4,5.01,0.00,21.9,21.0,00.0,30.8,23.7,10.9,0000.0,0003.40,0001.36,0001.12
2022-12-01 12:29:00,,0818.4,5.00,0.00,21.9,20.8,00.0,30.8,23.7,10.9,0000.0,0003.33,0001.33,0001.11
2022-12-01 12:30:00,,0818.4,5.00,0.00,21.9,20.7,00.0,30.8,23.6,10.8,0000.0,0003.26,0001.30,0001.09
2022-12-01 12:31:00,,0818.4,4.99,0.00,21.8,20.6,00.0,30.8,23.6,10.4,0000.0,0001.98,0001.31,0001.09
2022-12-01 12:32:00,,0818.3,5.00,0.00,21.8,20.5,00.0,30.8,23.6,10.1,0000.0,0001.92,0001.32,0001.10
2022-12-01 12:33:00,,0818.2,5.00,0.00,21.8,20.4,00.0,30.8,23.6,09.4,0000.0,0002.05,0001.34,0001.10
2022-12-01 12:34:00,,0818.3,5.01,0.00,21.8,20.4,00.0,30.8,23.6,09.3,0000.0,0002.19,0001.39,0001.09
2022-12-01 12:35:00,,0818.4,5.00,0.00,21.8,20.3,00.0,30.8,23.6,09.1,0000.0,0002.43,0001.43,0001.08
2022-12-01 12:36:00,,0818.4,5.00,0.00,21.8,20.3,00.0,30.8,23.6,09.1,0000.0,0002.61,0001.45,0001.06
2022-12-01 12:37:00,,0818.4,5.00,0.00,21.8,20.3,00.0,30.7,23.5,09.0,0000.0,0002.62,0001.45,0001.05
2022-12-01 12:38:00,,0818.4,5.00,0.00,21.8,20.3,00.0,30.7,23.5,08.9,0000.0,0002.65,0001.44,0001.05
2022-12-01 12:39:00,,0818.4,5.00,0.00,21.7,20.3,00.0,30.7,23.5,08.8,0000.0,0002.71,0001.43,0001.04
2022-12-01 12:40:00,,0818.5,5.01,0.00,21.8,20.9,00.0,30.7,23.6,08.8,0000.0,0002.77,0001.45,0001.03
2022-12-01 12:41:00,,0818.5,5.00,0.00,21.9,22.0,00.0,30.6,23.9,10.2,0000.0,0002.90,0001.50,0001.04
2022-12-01 12:42:00,,0818.4,4.98,0.00,22.0,22.3,00.0,30.7,24.0,10.5,0000.0,0002.98,0001.52,0001.04
2022-12-01 12:43:00,,0818.4,5.00,0.00,22.0,21.9,00.0,30.7,24.0,10.5,0000.0,0002.92,0001.51,0001.03
2022-12-01 12:44:00,,0818.4,5.00,0.00,22.0,21.6,00.0,30.8,23.9,10.3,0000.0,0002.88,0001.51,0001.03
2022-12-01 12:45:00,,0818.4,5.00,0.00,22.0,21.2,00.0,30.8,23.8,10.4,0000.0,0002.90,0001.50,0001.03
2022-12-01 12:46:00,,0818.3,5.01,0.00,22.0,21.0,00.0,30.8,23.8,10.3,0000.0,0002.97,0001.50,0001.03
2022-12-01 12:47:00,,0818.2,5.01,0.00,22.0,20.9,00.0,30.8,23.8,10.1,0000.0,0002.75,0001.47,0001.03
2022-12-01 12:48:00,,0818.1,5.00,0.00,22.0,20.7,00.0,30.9,23.7,10.0,0000.0,0002.68,0001.44,0001.03
2022-12-01 12:49:00,,0818.4,5.00,0.00,21.9,20.7,00.0,30.9,23.7,10.1,0000.0,0002.77,0001.49,0001.03
2022-12-01 12:50:00,,0818.6,4.99,0.00,21.9,20.6,00.0,30.9,23.7,10.3,0000.0,0002.66,0001.47,0001.03
2022-12-01 12:51:00,,0818.7,5.00,0.00,21.9,20.5,00.0,30.8,23.6,10.2,0000.0,0002.60,0001.47,0001.04
2022-12-01 12:52:00,,0818.7,5.00,0.00,21.9,20.4,00.0,30.8,23.6,10.5,0000.0,0002.65,0001.46,0001.04
2022-12-01 12:53:00,,0818.7,5.00,0.00,21.9,20.3,00.0,30.8,23.5,11.0,0000.0,0002.67,0001.47,0001.06
2022-12-01 12:54:00,,0818.6,5.00,0.00,21.8,20.2,00.0,30.8,23.5,10.8,0000.0,0002.77,0001.53,0001.11
2022-12-01 12:55:00,,0818.4,5.01,0.00,21.8,20.2,00.0,30.8,23.4,10.2,0000.0,0002.83,0001.58,0001.15
2022-12-01 12:56:00,,0818.4,5.01,0.00,21.8,20.8,00.0,30.7,23.6,09.9,0000.0,0002.81,0001.62,0001.17
2022-12-01 12:57:00,,0818.4,5.00,0.00,21.9,21.9,00.0,30.7,23.8,09.8,0000.0,0002.63,0001.59,0001.17
2022-12-01 12:58:00,,0818.4,4.99,0.00,22.0,22.3,00.0,30.7,24.0,09.9,0000.0,0002.67,0001.65,0001.21
2022-12-01 12:59:00,,0818.4,4.99,0.00,22.1,21.9,00.0,30.8,24.0,09.8,0000.0,0002.90,0001.68,0001.22
